Terminal Aerodrome Forecast
Issued by NWS Billings, MT

Home | Current Version | Previous Version | Text Only | Print | Product List | Glossary Off
Versions: 1 2 3 4 5 6 7 8 9 10 11 12 13 14 15 16 17 18 19 20 21 22 23 24 25 26 27 28 29 30 31 32 33 34 35

000
FTUS45 KBYZ 260523
TAFMLS
TAF
KMLS 260523Z 2606/2706 VRB06KT P6SM SKC
     FM261100 29009KT P6SM FEW050
     FM261500 31013KT P6SM FEW050
     FM261800 32016G31KT P6SM FEW050
     FM270200 35011KT P6SM SKC=

USA.gov is the U.S. government's official web portal to all federal, state and local government web resources and services.